When you browse on this site, cookies collect data to enhance your experience and personalize the content and advertising you see.
Visit our Privacy Policy to learn more. By continuing to use the site, you agree to this use of cookies and data.
  • In Czech Republic
  • List of Countries
  • For 7 days
  • Water Temperature
  • Weather Map
  • Weather Widgets
  • user-avatar
    Login

    Hourly Weather Quito

    Today, 22 February, Saturday

    Time Temperature Precipitation Wind Pressure Humidity
    00:00 +18°C° 1.9 mm 2 mps 621 mmHg 95%
    01:00 +18°C° 0 mm 2 mps 621 mmHg 95%
    02:00 +18°C° 1.6 mm 2 mps 621 mmHg 95%
    03:00 +17°C° 1.6 mm 2 mps 621 mmHg 95%
    04:00 +17°C° 1.6 mm 2 mps 621 mmHg 96%
    05:00 +18°C° 0.7 mm 2 mps 621 mmHg 95%
    06:00 +19°C° 0.7 mm 1 mps 622 mmHg 95%
    07:00 +19°C° 0 mm 1 mps 623 mmHg 95%
    08:00 +18°C° 1.3 mm 2 mps 623 mmHg 95%
    09:00 +18°C° 1.3 mm 2 mps 623 mmHg 95%
    10:00 +18°C° 1.3 mm 3 mps 623 mmHg 95%
    11:00 +18°C° 1.9 mm 3 mps 622 mmHg 93%
    12:00 +19°C° 1.9 mm 3 mps 622 mmHg 92%
    13:00 +22°C° 0 mm 1 mps 622 mmHg 85%
    14:00 +22°C° 0.2 mm 1 mps 621 mmHg 82%
    15:00 +23°C° 0.2 mm 1 mps 621 mmHg 78%
    16:00 +24°C° 0.2 mm 1 mps 620 mmHg 75%
    17:00 +22°C° 0.1 mm 1 mps 620 mmHg 80%
    18:00 +21°C° 0.1 mm 1 mps 621 mmHg 85%
    19:00 +20°C° 0.1 mm 1 mps 621 mmHg 90%
    20:00 +20°C° 0.4 mm 1 mps 621 mmHg 92%
    21:00 +19°C° 0.4 mm 1 mps 621 mmHg 93%
    22:00 +19°C° 0.4 mm 1 mps 622 mmHg 95%
    23:00 +19°C° 0.4 mm 1 mps 621 mmHg 95%

    Tomorrow, 23 February, Sunday

    Time Temperature Precipitation Wind Pressure Humidity
    00:00 +18°C° 0.4 mm 1 mps 621 mmHg 95%
    01:00 +18°C° 0.4 mm 1 mps 621 mmHg 95%
    02:00 +17°C° 0.1 mm 2 mps 621 mmHg 95%
    03:00 +17°C° 0.1 mm 2 mps 620 mmHg 95%
    04:00 +17°C° 0.1 mm 2 mps 620 mmHg 95%
    05:00 +17°C° 0.1 mm 2 mps 621 mmHg 95%
    06:00 +18°C° 0.1 mm 2 mps 621 mmHg 94%
    07:00 +18°C° 0.1 mm 2 mps 622 mmHg 94%
    08:00 +20°C° 1.2 mm 2 mps 622 mmHg 90%
    09:00 +21°C° 1.2 mm 3 mps 623 mmHg 86%
    10:00 +24°C° 1.2 mm 3 mps 623 mmHg 82%
    11:00 +23°C° 1.8 mm 4 mps 623 mmHg 81%
    12:00 +23°C° 1.8 mm 4 mps 623 mmHg 80%
    13:00 +25°C° 1.8 mm 4 mps 622 mmHg 79%
    14:00 +23°C° 1.2 mm 4 mps 622 mmHg 80%
    15:00 +24°C° 1.2 mm 3 mps 621 mmHg 82%
    16:00 +22°C° 1.2 mm 3 mps 621 mmHg 83%
    17:00 +21°C° 1.8 mm 2 mps 621 mmHg 87%
    18:00 +20°C° 1.8 mm 2 mps 621 mmHg 91%
    19:00 +19°C° 1.8 mm 1 mps 621 mmHg 95%
    20:00 +19°C° 3.7 mm 1 mps 622 mmHg 95%
    21:00 +19°C° 3.7 mm 1 mps 622 mmHg 96%
    22:00 +19°C° 3.7 mm 1 mps 622 mmHg 97%
    23:00 +19°C° 5 mm 1 mps 622 mmHg 97%

    Day after tomorrow, 24 February, Monday

    Time Temperature Precipitation Wind Pressure Humidity
    00:00 +18°C° 5 mm 1 mps 622 mmHg 98%
    01:00 +18°C° 5 mm 1 mps 622 mmHg 98%
    02:00 +18°C° 1.8 mm 1 mps 621 mmHg 98%
    03:00 +17°C° 1.8 mm 2 mps 621 mmHg 98%
    04:00 +17°C° 1.8 mm 2 mps 621 mmHg 98%
    05:00 +18°C° 2.8 mm 1 mps 621 mmHg 98%
    06:00 +18°C° 2.8 mm 1 mps 622 mmHg 98%
    07:00 +18°C° 2.8 mm 1 mps 622 mmHg 98%
    08:00 +19°C° 0.5 mm 1 mps 622 mmHg 96%
    09:00 +19°C° 0.5 mm 1 mps 623 mmHg 95%
    10:00 +20°C° 0.5 mm 1 mps 623 mmHg 93%
    11:00 +21°C° 0.6 mm 1 mps 623 mmHg 88%
    12:00 +21°C° 0.6 mm 2 mps 623 mmHg 84%
    13:00 +23°C° 0.6 mm 2 mps 623 mmHg 79%
    14:00 +23°C° 1.4 mm 2 mps 622 mmHg 81%
    15:00 +23°C° 1.4 mm 2 mps 621 mmHg 83%
    16:00 +23°C° 1.4 mm 2 mps 621 mmHg 84%
    17:00 +21°C° 1.2 mm 2 mps 621 mmHg 87%
    18:00 +21°C° 1.2 mm 1 mps 621 mmHg 90%
    19:00 +20°C° 1.2 mm 1 mps 621 mmHg 93%
    20:00 +19°C° 0.8 mm 1 mps 621 mmHg 92%
    21:00 +18°C° 0.8 mm 2 mps 622 mmHg 92%
    22:00 +18°C° 0.8 mm 2 mps 622 mmHg 92%
    23:00 +18°C° 0.1 mm 2 mps 621 mmHg 93%

    25 February, Tuesday

    Time Temperature Precipitation Wind Pressure Humidity
    00:00 +17°C° 0.1 mm 2 mps 621 mmHg 94%
    01:00 +17°C° 0.1 mm 2 mps 621 mmHg 94%
    02:00 +17°C° 0 mm 2 mps 621 mmHg 94%
    03:00 +16°C° 0 mm 2 mps 620 mmHg 94%
    04:00 +16°C° 0 mm 2 mps 620 mmHg 94%
    05:00 +18°C° 0 mm 1 mps 620 mmHg 93%
    06:00 +18°C° 0 mm 1 mps 621 mmHg 92%
    07:00 +18°C° 0 mm 1 mps 621 mmHg 91%
    08:00 +20°C° 0 mm 1 mps 622 mmHg 83%
    09:00 +22°C° 0 mm 1 mps 623 mmHg 74%
    10:00 +24°C° 0 mm 2 mps 623 mmHg 65%
    11:00 +25°C° 0 mm 2 mps 623 mmHg 62%
    12:00 +26°C° 0 mm 2 mps 623 mmHg 58%
    13:00 +27°C° 0 mm 2 mps 622 mmHg 55%
    14:00 +26°C° 0.3 mm 2 mps 622 mmHg 60%
    15:00 +25°C° 0.3 mm 1 mps 621 mmHg 65%
    16:00 +25°C° 0.3 mm 1 mps 620 mmHg 70%
    17:00 +23°C° 0.4 mm 1 mps 620 mmHg 76%
    18:00 +22°C° 0.4 mm 1 mps 620 mmHg 82%
    19:00 +18°C° 0.4 mm 0 mps 620 mmHg 88%
    20:00 +19°C° 0.3 mm 1 mps 620 mmHg 90%
    21:00 +19°C° 0.3 mm 1 mps 620 mmHg 91%
    22:00 +17°C° 0.3 mm 2 mps 621 mmHg 92%
    23:00 +17°C° 0 mm 2 mps 620 mmHg 93%

    26 February, Wednesday

    Time Temperature Precipitation Wind Pressure Humidity
    00:00 +17°C° 0 mm 2 mps 620 mmHg 93%
    01:00 +17°C° 0 mm 2 mps 620 mmHg 94%
    02:00 +17°C° 0 mm 2 mps 620 mmHg 94%
    03:00 +17°C° 0 mm 2 mps 620 mmHg 93%
    04:00 +16°C° 0 mm 2 mps 619 mmHg 93%
    05:00 +17°C° 0 mm 2 mps 620 mmHg 93%
    06:00 +17°C° 0 mm 2 mps 620 mmHg 92%
    07:00 +17°C° 0 mm 2 mps 621 mmHg 91%
    08:00 +19°C° 0 mm 2 mps 622 mmHg 84%
    09:00 +21°C° 0 mm 2 mps 622 mmHg 76%
    10:00 +24°C° 0 mm 2 mps 623 mmHg 68%
    11:00 +25°C° 0.3 mm 2 mps 622 mmHg 66%
    12:00 +26°C° 0.3 mm 2 mps 622 mmHg 63%
    13:00 +27°C° 0.3 mm 1 mps 622 mmHg 60%
    14:00 +26°C° 0.8 mm 1 mps 621 mmHg 64%
    15:00 +25°C° 0.8 mm 1 mps 621 mmHg 68%
    16:00 +25°C° 0.8 mm 1 mps 620 mmHg 72%
    17:00 +23°C° 0.5 mm 1 mps 620 mmHg 77%
    18:00 +21°C° 0.5 mm 1 mps 620 mmHg 82%
    19:00 +19°C° 0.5 mm 1 mps 620 mmHg 87%
    20:00 +19°C° 0 mm 1 mps 620 mmHg 88%
    21:00 +18°C° 0 mm 1 mps 621 mmHg 90%
    22:00 +18°C° 0 mm 1 mps 621 mmHg 91%
    23:00 +18°C° 0 mm 1 mps 621 mmHg 92%

    27 February, Thursday

    Time Temperature Precipitation Wind Pressure Humidity
    00:00 +17°C° 0 mm 2 mps 621 mmHg 92%
    01:00 +16°C° 0 mm 2 mps 620 mmHg 92%
    02:00 +16°C° 0 mm 2 mps 620 mmHg 92%
    03:00 +16°C° 0 mm 2 mps 620 mmHg 92%
    04:00 +16°C° 0 mm 2 mps 620 mmHg 92%
    05:00 +16°C° 0 mm 2 mps 621 mmHg 92%
    06:00 +17°C° 0 mm 2 mps 621 mmHg 91%
    07:00 +18°C° 0 mm 1 mps 622 mmHg 90%
    08:00 +19°C° 0 mm 2 mps 622 mmHg 80%
    09:00 +23°C° 0 mm 2 mps 623 mmHg 71%
    10:00 +25°C° 0 mm 2 mps 624 mmHg 62%
    11:00 +26°C° 0 mm 1 mps 624 mmHg 57%
    12:00 +28°C° 0 mm 1 mps 624 mmHg 52%
    13:00 +29°C° 0 mm 1 mps 623 mmHg 48%
    14:00 +28°C° 0 mm 1 mps 623 mmHg 53%
    15:00 +27°C° 0 mm 1 mps 622 mmHg 57%
    16:00 +26°C° 0 mm 1 mps 621 mmHg 62%
    17:00 +24°C° 0.3 mm 1 mps 621 mmHg 69%
    18:00 +22°C° 0.3 mm 1 mps 621 mmHg 75%
    19:00 +20°C° 0.3 mm 1 mps 620 mmHg 82%
    20:00 +19°C° 0 mm 1 mps 621 mmHg 83%
    21:00 +19°C° 0 mm 1 mps 621 mmHg 84%
    22:00 +18°C° 0 mm 1 mps 621 mmHg 85%
    23:00 +18°C° 0 mm 1 mps 621 mmHg 86%
    Show more